OBJECT B, 54362

Orbit data source: Space-Track

You're viewing an Uncataloged Satellite

Recently launched and/or uncataloged satellites may have evolving metadata. Metadata may include but not limited to: Owner, Maufacturer, Bus, Motor, and Mission.

OBJECT B, 54362 is a satellite in SSO that was launched on Sat, 26 Nov 2022 UTC launched from the Sirharikota (SRI). Unknown objects in Earth's orbit typically refer to objects detected orbiting the Earth but have not yet been identified or cataloged. These objects could be anything from previously untracked satellites, spent rocket stages, debris from satellite collisions, or even natural meteoroids temporarily captured by Earth's gravity.

Loading next visibility...
Identifier
54362, 2022-158B
Orbit
SSO
Country
Flag of TBDTBD
Related business
Manufacturer
VSSC/LPSC
Mission
Non-operational spacecraft
Bus & Motor
PS-4DL, Unknown motor
Mass
920 kg wet, 920 kg dry
Launch date (UTC)
2022-11-26 (4 years ago)
Launch vehicle
Unknown
Launch site
Sirharikota (SRI)
Object type
Unknown
Shape & HBR
Cyl + Cyl + 2 Nozzle, 1.5 m
Radar Cross Section
3.727 m², Large (>1 m²)

Expand to show TLE details & history
Last TLE update: 1 day ago

TLE from 1 day ago
0 OBJECT B
1 54362U 22158B   26172.49655569  .00016558  00000-0  25763-3 0  9996
2 54362  97.4893 297.5977 0008917 297.0987  62.9356 15.53948298199425
Epoch: 2026-06-21T11:55Z
TLE epoch observation values (Epoch: 2026-06-21T11:55:02.411Z)
Latitude
-0.00005°
Longitude
-150.85833°
Altitude
405.597 km
Speed
7.669 km/s
True Right ascension
19h 50m 23s
True Declination
0° 00' 00"
Sunlit
Object was in full shadow at epoch
Visualization orbit readout
Latitude
Unknown
Longitude
Unknown
Altitude
Unknown
Speed
Unknown
Apparent Right ascension
Unknown
Apparent Declination
Unknown
Sunlit
N/A
Visualization observer readout
Local Sidereal Time
00:50:49
Azimuth
Unknown
Elevation
Unknown
Doppler factor
Unknown
Orbital elements
Apogee altitude
408.182 km
Perigee altitude
396.09 km
Semi-major axis
6,780.273 km
Eccentricity
0.00089
Inclination
97.4893°
RAAN
297.5977°
Arg. of periapsis
297.0987°
True anomaly
63.02664°
Mean anomaly
62.9356°
Eccentric anomaly
62.98111°
Mean motion
3.88752 °/min
Orbital period
92.6 mins
BSTAR
0.00025763
Loading maneuver chart data...
Computing Atmospheric mass density...
Loading historical data...
Loading historical data...
Loading historical data...
Loading historical data...
Loading historical data...
Loading historical data...
Loading historical data...

Documentation

Showing up to 5 results
|